Regional Weather Roundup
Issued by NWS

Home | Current Version | Previous Version | Text Only | Print | Product List | Glossary Off
Versions: 1 2 3 4 5 6 7 8 9 10 11 12 13 14 15 16 17 18 19 20 21 22 23 24 25 26 27 28

000
ASUS45 KSLC 262310
RWRUT

UTAH REGIONAL WEATHER ROUNDUP
NATIONAL WEATHER SERVICE SALT LAKE CITY UT
500 PM MDT FRI AUG 26 2016

UTZ001>011-023>025-270000-

NORTHERN UTAH

CITY           SKY/WX    TMP DP  RH WIND       PRES   REMARKS
BRIGHAM CITY     N/A     82  10   6 W5        29.97F
HILL AFB       PTSUNNY   77  26  15 W9        30.01F
LOGAN          MOSUNNY   81  28  14 VRB6      29.97F
OGDEN          MOSUNNY   78  24  13 W8        29.99S
PROVO AIRPORT  MOSUNNY   84  37  18 W14       29.97S
SALT LAKE CITY PTSUNNY   85  26  11 N18G25    29.97R
VERNAL         CLOUDY    62  46  55 NW15G25   30.09R
WENDOVER       MOSUNNY   82  27  13 SE8       29.97S
HEBER CITY     MOSUNNY   81  34  18 SW10G22   30.01S
WEST JORDAN    MOSUNNY   81  35  19 NW20G26   30.00S

$$

UTZ012>022-026-027-270000-

SOUTHERN/CENTRAL UTAH

CITY           SKY/WX    TMP DP  RH WIND       PRES   REMARKS
BLANDING       MOSUNNY   73  45  36 CALM      30.23R
BRYCE CANYON   CLOUDY    57  48  72 CALM      30.25F
CEDAR CITY     MOSUNNY   75  41  29 S16       30.09S
MILFORD        LGT RAIN  72  44  36 N16       30.06R
MOAB/CYNLANDS  CLOUDY    82  42  24 SW7       30.02S
PRICE          CLOUDY    66  52  60 E9        30.11R
ST GEORGE      PTCLDY    88  48  25 SE14      29.95F THUNDER

$$

REGIONAL REPORTS     COLORADO/ARIZONA

CITY           SKY/WX    TMP DP  RH WIND       PRES   REMARKS
CRAIG, CO      CLOUDY    73  30  20 S13G20    30.11S
GRAND JUNCTION SUNNY     78  48  34 CALM      30.05F
RIFLE          SUNNY     79  37  22 W12       30.08F
MONTROSE       CLOUDY    74  42  31 N8        30.12F
CORTEZ         SUNNY     73  48  41 CALM      30.16F
PAGE, AZ       PTSUNNY   83  49  30 VRB3      30.04F
GRAND CANYON   PTSUNNY   71  48  43 S5        30.23S
KINGMAN        CLOUDY    88  47  24 SW14G24   29.99F
FLAGSTAFF      CLOUDY    56  50  80 E6        30.30F

$$

REGIONAL REPORTS    NEVADA/IDAHO/WYOMING

CITY           SKY/WX    TMP DP  RH WIND       PRES   REMARKS
LAS VEGAS, NV  PTSUNNY   94  40  15 S14G24    29.82F HX  90
ELY            SUNNY     81  20  10 W17G26    30.08F
ELKO           MOSUNNY   81  16   9 SW12      30.04S
POCATELLO, ID  PTSUNNY   76  28  17 W12       30.01S
BURLEY         PTSUNNY   73  42  32 W9G17     29.99S
EVANSTON, WY   CLOUDY    71  31  22 W16G29    30.12S
ROCK SPRINGS   LGT RAIN  57  42  57 VRB3      30.17R

$$




USA.gov is the U.S. government's official web portal to all federal, state and local government web resources and services.